User: anonymous   Login
Location: Unspecified
(0.0000°N, 0.0000°E)
Time: 13:13:23
(UTC+00:00)
Language:

Kosmos-2154 - Orbit

View from above orbital plane
View from above orbital plane
View from above satellite
View from above satellite

Ground track
Ground track

The orbit data is extracted from the following two-line orbital elements,

1 21666U 91059A   21015.80129568  .00000028  00000-0  14144-4 0  9991
2 21666  82.9079 138.4235 0023993 313.8984 200.1187 13.73334021473275
Epoch (UTC): 15 January 2021 19:13:51
Eccentricity: 0.0023993
inclination: 82.9079°
perigee height: 970 km
apogee height: 1005 km
right ascension of ascending node: 138.4235°
argument of perigee: 313.8984°
revolutions per day: 13.73334021
mean anomaly at epoch: 200.1187°
orbit number at epoch: 47327

The dashed part of the orbit path shows where the satellite is in the earth's shadow,  

DLR